Weather in Jaen

Spain     37°47′10″N   3°46′59″W
temp.,
°C
wind,
m/s
gust,
m/s
humid.,
%
clouds,
%
prec.,
mm/h
press.,
hPa
HPBL,
m
6 may, thu
thu623:00+16sw22380 0.0 101611
02:00+15wsw11410 0.0 101511
05:00+13sw22490 0.0 101611
08:00+13ssw11560 0.0 101710
11:00+20nw22390 0.0 1017728
14:00+24nw43305 0.0 10162075
17:00+25wnw442625 0.0 10152130
20:00+23w34320 0.0 1015234
7 may, fri
fri723:00+18ssw33400 0.0 101819
02:00+16sw22460 0.0 101812
05:00+13ssw11520 0.0 101711
08:00+14sse11530 0.0 101811
11:00+21nnw11340 0.0 1018752
14:00+25nw34240 0.0 10171994
17:00+26wnw44220 0.0 10152341
20:00+24wnw35275 0.0 1015178
8 may, sat
sat823:00+18s223515 0.0 101711
02:00+17s2236100 0.0 101611
05:00+15sse004494 0.0 101611
08:00+16sse224663 0.0 101517
11:00+23sse0329100 0.0 1014870
14:00+27ssw3520100 0.0 10122145
17:00+29wsw5818100 0.0 10102435
20:00+25wsw233241 0.0 100970
9 may, sun
sun923:00+20s333735 0.0 101127
02:00+17s2251100 0.1 101135
05:00+15wsw1274100 1.3 101270
08:00+13nnw12820 1.3 101180
11:00+17nw256411 0.0 1011902
14:00+21wsw710310 0.0 10111692
17:00+21wsw9113646 0.0 10092128
20:00+17w476729 0.1 10111054
10 may, mon
mon1023:00+13wsw22875 0.4 101223
02:00+12sw22935 0.7 101234
05:00+10wsw22956 0.3 101225
08:00+11ssw228325 0.4 101259
11:00+15w486049 0.8 10131240
14:00+12wsw377489 1.9 1015791
17:00+15sw712535 0.1 10131886
20:00+15w6105229 0.2 10131523